Location: Mentone
(34.5413°N, 85.5351°W)
Time: 06:47:57
(UTC-06:00)

UOSAT-12 - Visible Passes

Search period start: 16 January 2017 00:00
Search period end: 26 January 2017 00:00
Orbit: 613 x 641 km, 64.6° (Epoch: 15 January)

Date Brightness Start Highest point End Pass type
(mag) Time Alt. Az. Time Alt. Az. Time Alt. Az.
16 Jan 7.0 17:50:31 10° NNW 17:55:08 70° ENE 17:59:43 10° SE visible
17 Jan 8.2 18:10:28 10° NW 18:14:54 48° WSW 18:19:20 10° S visible
18 Jan 9.9 18:31:07 10° WNW 18:34:31 20° WSW 18:37:54 10° SSW visible
20 Jan 8.8 17:30:02 10° NW 17:34:20 40° WSW 17:38:38 10° S visible
21 Jan 11.0 06:00:39 10° SE 06:02:05 11° ESE 06:03:31 10° E visible
21 Jan 10.4 17:50:57 10° WNW 17:53:55 17° WSW 17:56:52 10° SSW visible
24 Jan 10.4 05:19:09 10° SE 05:21:28 14° ESE 05:23:48 10° ENE visible
25 Jan 9.0 05:36:58 10° S 05:41:00 33° ESE 05:45:05 10° NE visible
